Akron, OH

3:18 AM EST on February 23, 2017 (GMT -0500)
Akron Fulton International

Weather History for KAKR - October, 2012

Change the Weather History Date:

Thursday, October 25, 2012

  Actual Average (KCAK) Record (KCAK)
Temperature  
Mean Temperature 66 °F -  
Max Temperature 79 °F 58 °F 79 °F (1963)
Min Temperature 54 °F 40 °F 26 °F (1896)
Cooling Degree Days 2    
Growing Degree Days 16 (Base 50)    
Moisture  
Dew Point 48 °F    
Average Humidity 54    
Maximum Humidity 81    
Minimum Humidity 31    
Precipitation  
Precipitation 0.00 in - - ()
Sea Level Pressure  
Sea Level Pressure 30.03 in    
Wind  
Wind Speed 4 mph (South)    
Max Wind Speed 15 mph    
Max Gust Speed 24 mph    
Visibility 10 miles    
Events      
Averages and records for this station are not official NWS values.
T = Trace of Precipitation, MM = Missing Value Source: NWS Daily Summary

Daily Weather History Graph

Daily Weather History Graph

Search for Another Location

Airport or City:

Trip Planner

Search our weather history database for the weather conditions in past years. The results will help you decide how hot, cold, wet, or windy it might be!

Date:

Astronomy

Oct. 25, 2012 Rise Set
Actual Time 7:49 AM EDT 6:29 PM EDT
Civil Twilight 7:20 AM EDT 6:58 PM EDT
Nautical Twilight 6:48 AM EDT 7:30 PM EDT
Astronomical Twilight 6:16 AM EDT 8:02 PM EDT
Moon 4:17 PM EDT (10/25) 3:42 AM EDT (10/25)
Length of Visible Light 11h 37m
Length of Day
10h 40m
Waxing Gibbous, 84% of the Moon is Illuminated
Oct 25
Waxing Gibbous
Oct 29
Full
Nov 6
Last Quarter
Nov 13
New
Nov 20
First Quarter

Hourly Weather History & Observations

Time (EDT) Temp. Dew Point Humidity Pressure Visibility Wind Dir Wind Speed Gust Speed Precip Events Conditions
12:54 AM 57.0 °F 51.1 °F 81% 30.06 in 10.0 mi Calm Calm - N/A   Clear
1:54 AM 59.0 °F 50.0 °F 72% 30.06 in 10.0 mi Calm Calm - N/A   Clear
2:54 AM 55.9 °F 48.9 °F 77% 30.05 in 10.0 mi Calm Calm - N/A   Clear
3:54 AM 55.9 °F 48.9 °F 77% 30.05 in 10.0 mi Calm Calm - N/A   Clear
4:54 AM 55.0 °F 48.0 °F 77% 30.05 in 10.0 mi Calm Calm - N/A   Clear
5:54 AM 54.0 °F 48.0 °F 80% 30.06 in 10.0 mi Calm Calm - N/A   Clear
6:54 AM 55.0 °F 48.0 °F 77% 30.07 in 10.0 mi Calm Calm - N/A   Clear
7:54 AM 55.0 °F 46.9 °F 74% 30.08 in 10.0 mi Calm Calm - N/A   Clear
8:54 AM 60.1 °F 48.9 °F 67% 30.09 in 10.0 mi Calm Calm - N/A   Clear
9:54 AM 66.0 °F 51.1 °F 59% 30.09 in 10.0 mi South 6.9 mph - N/A   Clear
10:54 AM 71.1 °F 50.0 °F 47% 30.08 in 10.0 mi South 10.4 mph - N/A   Clear
11:54 AM 73.9 °F 48.9 °F 41% 30.07 in 10.0 mi SSW 11.5 mph - N/A   Clear
12:54 PM 77.0 °F 50.0 °F 39% 30.05 in 10.0 mi SSW 13.8 mph - N/A   Clear
1:54 PM 78.1 °F 46.9 °F 33% 30.01 in 10.0 mi SSW 15.0 mph 21.9 mph N/A   Clear
2:54 PM 79.0 °F 46.0 °F 31% 29.99 in 10.0 mi SW 13.8 mph - N/A   Clear
3:54 PM 78.1 °F 46.0 °F 32% 29.99 in 10.0 mi SSW 11.5 mph 24.2 mph N/A   Clear
4:54 PM 78.1 °F 45.0 °F 31% 29.97 in 10.0 mi South 15.0 mph - N/A   Clear
5:54 PM 73.9 °F 46.0 °F 37% 29.97 in 10.0 mi SSW 9.2 mph - N/A   Clear
6:54 PM 71.1 °F 46.0 °F 41% 29.98 in 10.0 mi South 4.6 mph - N/A   Clear
7:54 PM 69.8 °F 46.4 °F 43% 29.99 in 10.0 mi South 4.6 mph - N/A   Clear
8:54 PM 70.0 °F 46.0 °F 42% 29.97 in 10.0 mi SSE 6.9 mph - N/A   Clear
9:54 PM 68.0 °F 46.0 °F 45% 29.96 in 10.0 mi South 6.9 mph - N/A   Clear
10:54 PM 66.9 °F 46.0 °F 47% 29.96 in 10.0 mi South 4.6 mph - N/A   Clear
11:54 PM 64.0 °F 46.9 °F 54% 29.96 in 10.0 mi South 4.6 mph - N/A   Clear